Theta_e
311 311 312 312 312 312 312 312 312 312 312 311 311 310 309 309 309 310 311 311 312 312 313 314 314 315 315 315 316 316 317 317 318 318 319 319 319 320 319 319 319 319 320 322 323 323 323 324 325 325 325 337
307 309 309 310 310 310 310 309 309 309 309 309 308 307 306 305 306 306 307 307 309 309 310 310 311 312 313 314 315 315 315 316 316 316 317 317 317 317 316 316 315 315 317 318 319 319 320 320 320 321 321 334
303 305 306 307 307 307 308 307 306 306 305 306 306 305 304 304 303 303 304 304 305 306 306 306 307 309 311 311 313 313 313 314 315 315 315 315 315 315 315 314 313 313 314 315 316 317 317 316 316 316 325 335
303 302 303 304 304 305 304 304 305 304 304 303 303 303 303 303 303 304 304 302 303 303 304 303 304 306 307 308 309 311 310 312 313 313 313 314 314 314 313 312 312 312 312 313 314 314 314 314 313 327 332 336
303 302 301 301 301 301 302 302 302 302 302 303 302 302 303 304 303 303 304 303 303 303 302 301 301 303 305 306 306 307 307 308 310 311 311 312 312 312 311 310 310 310 310 311 311 311 312 312 318 323 326 328
302 302 300 302 302 301 301 300 301 301 301 302 302 303 302 302 301 302 302 301 301 302 301 302 300 302 303 305 304 305 306 306 307 308 309 309 309 309 309 308 310 310 311 311 310 311 311 316 315 318 319 321
302 301 301 301 301 301 300 301 300 301 300 301 301 302 302 301 300 301 302 300 300 300 301 301 300 301 302 302 302 303 304 304 305 306 307 307 307 307 307 308 309 308 309 310 309 310 312 312 313 315 315 317
301 301 301 301 301 301 300 301 301 301 301 301 301 301 300 300 300 301 301 303 303 303 301 302 302 301 301 301 302 301 303 303 303 304 305 305 305 306 309 308 307 307 307 308 308 309 309 309 311 312 313 313
300 300 300 300 300 301 300 300 300 300 301 301 301 301 300 301 300 301 300 301 301 301 301 302 301 301 301 301 302 301 302 302 303 303 304 304 305 306 306 306 306 306 306 306 307 307 307 309 310 310 310 312
298 300 300 300 300 300 300 300 300 300 300 300 300 300 300 299 300 300 300 300 300 300 300 300 299 299 300 300 301 300 301 301 302 302 303 303 303 304 304 305 306 306 305 305 306 306 307 308 308 308 308 309
300 299 299 300 299 300 299 300 300 299 299 299 299 300 299 299 299 299 298 299 299 299 299 298 298 298 299 299 299 299 299 300 301 301 301 302 302 303 304 305 305 305 306 306 306 306 306 307 307 307 307 308
299 299 299 299 298 299 297 299 298 298 298 299 298 299 298 299 299 298 297 298 297 298 298 298 298 298 298 298 298 298 299 299 299 300 300 301 302 302 303 303 304 305 305 305 305 305 306 306 306 307 307 307
298 298 298 299 298 298 297 298 298 298 298 298 298 298 298 297 298 297 297 297 296 297 297 297 297 297 296 297 297 297 297 297 298 298 299 300 300 301 302 303 303 303 304 304 304 304 304 305 305 306 306 307
298 298 298 298 298 297 297 297 297 298 297 297 297 296 297 297 297 296 295 295 295 296 295 296 296 295 295 296 296 296 296 296 297 297 298 298 299 300 301 301 302 303 302 303 303 304 303 304 304 304 305 305
296 297 297 297 298 298 297 297 297 297 297 297 296 296 296 297 296 296 296 295 295 295 295 294 294 294 295 295 295 295 295 295 296 297 297 297 298 298 299 300 301 302 301 302 302 303 303 303 303 303 304 305
297 297 297 297 297 297 297 297 297 296 296 296 296 296 296 296 296 295 295 294 294 293 294 293 293 294 293 294 294 294 294 294 295 296 296 297 298 298 299 299 299 300 300 300 301 302 302 302 302 303 304 304
296 296 296 297 297 296 297 296 296 296 296 295 295 295 295 294 294 294 294 294 293 293 293 293 293 292 292 293 292 293 294 294 295 295 296 296 297 297 297 298 298 300 299 299 300 300 301 301 301 302 303 303
296 296 296 296 296 296 296 296 296 295 295 295 295 294 294 294 294 294 294 293 293 293 292 292 292 292 291 292 292 292 293 293 293 294 294 295 295 295 295 296 297 297 297 298 299 299 300 300 301 302 302 303
296 296 296 296 296 296 296 296 295 295 295 295 294 293 294 294 293 293 293 293 292 292 292 291 291 291 291 291 291 291 292 292 292 293 293 294 293 294 295 295 295 295 295 296 296 298 299 299 300 300 301 302
295 295 295 296 296 295 296 295 295 294 294 293 294 293 293 293 292 292 292 292 292 291 291 290 290 290 290 290 290 291 291 291 291 291 292 293 293 293 293 293 294 294 294 295 295 296 297 298 299 299 300 300
295 295 295 294 294 294 295 294 294 294 294 293 293 293 292 292 292 292 292 292 291 290 290 290 289 290 290 289 290 290 290 291 291 291 292 292 293 293 292 292 293 294 294 294 295 295 296 297 297 298 299 300
295 294 294 294 294 293 293 293 293 293 293 292 292 292 292 292 292 291 291 291 291 291 290 290 289 289 289 289 289 289 289 290 290 291 291 290 292 292 292 292 292 292 293 294 294 294 295 297 297 298 299 300
294 293 293 293 293 293 293 292 292 292 292 292 292 292 291 291 291 291 291 290 290 289 290 289 289 288 289 288 289 288 289 289 290 290 290 290 290 292 292 292 292 292 292 293 294 294 295 296 297 298 299 299
293 293 292 293 292 292 292 292 291 292 291 291 291 291 291 291 291 291 289 290 290 289 289 289 288 288 288 288 288 288 288 289 289 289 289 290 290 289 290 291 292 292 292 292 293 293 296 297 297 298 299 300
292 292 292 292 291 292 292 291 291 291 291 291 291 290 290 290 290 290 289 289 289 288 288 288 289 288 288 288 288 288 288 289 289 289 289 289 289 289 289 290 291 292 292 291 292 294 294 294 296 296 297 298
292 293 292 292 291 291 290 290 290 290 290 290 290 290 290 290 290 289 289 288 289 288 288 288 288 288 288 288 288 288 288 288 288 288 289 289 288 290 289 288 290 291 292 290 289 288 288 291 295 296 297 297
292 292 291 291 291 290 290 290 289 289 290 289 289 290 290 289 289 289 288 288 288 288 288 288 288 287 288 288 287 287 288 288 288 289 288 288 287 287 288 288 291 291 292 288 289 289 288 287 287 292 295 299
292 292 291 291 290 289 288 288 289 289 290 289 289 289 289 289 289 288 287 288 288 287 287 287 287 287 287 287 288 288 287 287 287 288 288 288 287 287 285 287 288 291 290 289 289 285 286 286 287 286 291 291
291 290 290 290 289 288 288 288 288 288 288 289 288 287 289 288 288 287 287 287 287 286 286 287 287 287 287 287 288 287 287 287 287 287 287 287 286 286 286 285 287 288 290 290 291 288 286 285 285 285 287 289
290 289 289 288 287 287 287 287 288 287 288 288 288 287 288 287 287 287 287 287 286 286 286 286 287 287 286 287 287 287 287 286 287 287 287 287 286 286 286 285 285 285 289 289 289 290 289 288 284 285 287 287
290 289 289 288 288 288 288 287 288 288 287 287 287 286 286 287 287 287 286 286 286 286 286 286 286 286 286 286 286 286 286 286 286 286 286 286 286 286 286 286 284 285 286 288 288 288 288 288 289 289 286 284
Wind_Speed
12 11 12 12 13 13 13 13 14 13 14 14 14 14 14 14 14 14 14 14 15 15 15 15 16 15 15 15 15 15 15 14 14 14 13 12 12 13 14 15 16 16 16 16 15 15 15 14 12 11 9 7
11 11 11 12 12 12 13 13 14 13 13 13 13 13 13 12 12 12 13 13 13 14 14 14 14 15 15 15 14 15 14 14 13 13 13 13 12 12 12 12 13 14 14 15 15 15 15 14 14 12 11 7
8 10 10 11 11 12 13 13 13 14 13 13 12 12 11 10 9 9 11 10 11 11 13 13 12 14 13 14 14 14 13 13 12 12 12 12 12 12 12 12 12 11 10 12 13 14 14 14 14 15 9 8
6 8 9 10 11 11 12 12 12 12 12 11 11 10 9 7 7 7 7 9 7 10 10 12 11 12 12 12 13 13 13 13 13 12 12 12 12 12 12 13 13 10 9 9 10 10 13 13 15 9 6 8
5 4 3 6 7 9 10 10 11 10 10 9 9 9 8 5 8 7 6 7 8 8 8 10 12 12 11 11 11 11 11 11 11 12 12 12 12 12 13 14 13 9 8 9 8 9 9 12 8 7 7 8
3 3 3 3 4 5 6 7 7 8 7 8 7 7 6 6 6 5 6 7 9 6 8 8 11 11 11 11 11 12 10 9 9 11 11 11 12 13 12 12 7 6 7 8 7 8 10 7 6 6 7 7
3 3 2 3 3 3 4 5 6 6 6 6 6 5 5 5 5 5 4 5 5 6 7 6 8 10 10 10 10 13 11 9 8 10 9 9 10 11 10 7 5 5 6 6 8 8 6 5 5 6 8 8
3 2 2 1 1 2 2 3 4 5 6 5 5 4 4 4 4 4 3 4 2 5 4 5 6 8 9 9 9 13 8 8 7 11 7 8 9 6 4 5 5 6 6 6 6 6 6 6 7 7 7 7
2 2 2 2 1 1 2 2 3 4 5 5 5 5 4 4 3 2 3 4 4 5 5 5 6 6 6 6 7 9 6 6 6 6 6 6 6 5 5 5 6 6 6 6 7 7 7 6 7 7 7 7
3 1 2 1 1 1 2 3 3 3 4 4 5 4 4 3 3 4 3 4 5 5 5 6 6 6 6 7 7 7 6 6 6 6 6 6 6 5 5 5 6 6 6 6 6 7 7 7 7 7 7 8
2 2 2 1 1 1 2 2 3 3 4 4 5 4 4 4 4 4 4 5 5 6 6 6 6 7 7 7 7 7 7 7 6 6 5 5 5 6 6 6 6 6 6 7 7 7 7 8 8 8 8 8
3 3 2 2 2 1 2 2 3 3 4 4 4 5 5 4 4 4 4 5 5 5 5 6 6 6 6 6 6 7 6 7 7 6 5 6 6 6 5 6 6 6 6 6 7 7 7 8 8 8 8 8
4 4 3 3 2 2 1 2 3 3 3 4 4 5 6 5 4 4 4 5 5 4 5 5 5 5 5 6 6 6 6 6 7 6 6 5 6 5 5 6 6 6 7 6 6 7 8 8 8 9 9 9
5 5 4 3 2 3 2 3 3 3 3 3 4 4 5 5 4 4 4 4 4 4 5 5 5 5 5 6 6 6 6 6 6 6 6 6 6 6 6 6 6 6 6 7 7 7 7 8 8 8 9 9
5 5 4 4 3 3 2 3 3 3 4 4 4 4 4 4 4 3 3 3 4 4 4 4 5 5 5 5 6 6 7 7 7 7 6 6 7 7 6 6 6 6 6 7 7 7 8 8 8 9 9 9
5 5 4 4 3 3 3 3 3 4 3 3 4 4 3 3 3 2 2 3 3 4 4 4 5 5 5 5 6 6 6 8 7 7 7 7 7 8 7 7 7 7 7 7 7 7 8 8 8 9 9 10
5 5 4 3 3 3 2 3 3 3 3 3 3 2 2 2 2 2 3 3 4 4 3 4 4 5 5 5 6 6 8 9 7 6 7 7 7 6 7 7 7 7 7 8 8 8 8 8 10 9 9 10
5 4 3 3 3 3 2 3 3 3 3 3 2 1 2 2 3 3 3 3 3 3 3 4 4 5 5 5 7 6 6 7 6 6 7 7 7 7 7 7 7 8 8 8 8 8 9 9 9 9 10 10
5 4 3 3 3 3 2 3 3 2 3 2 1 1 1 2 3 3 3 3 3 4 3 4 3 4 4 5 7 6 5 6 6 6 7 7 7 7 7 8 8 8 8 9 9 9 9 10 10 10 10 11
5 5 4 3 3 3 3 3 2 2 2 1 1 1 0 1 2 2 3 3 3 4 3 4 4 4 4 6 5 5 6 5 5 5 6 6 6 7 8 8 9 8 9 9 9 9 9 10 10 10 11 11
5 4 4 4 4 3 3 3 3 2 1 1 1 0 1 1 2 3 3 3 3 4 4 4 4 4 4 5 5 5 5 5 4 5 5 6 6 7 8 8 10 9 9 9 10 10 11 11 11 11 11 12
6 5 4 4 3 3 3 3 2 1 1 1 1 0 1 1 3 3 3 4 4 4 5 5 5 5 5 5 5 5 6 5 5 5 5 6 6 6 7 8 8 9 9 9 10 11 12 12 11 11 12 12
5 5 3 3 3 3 3 3 2 1 1 1 1 1 1 2 3 3 4 4 5 5 4 5 5 5 6 6 6 6 6 5 5 5 5 7 7 7 7 8 9 9 10 10 11 12 13 13 14 13 12 13
5 4 4 4 4 4 3 3 2 2 1 1 1 1 2 3 4 4 4 5 5 5 5 5 5 6 6 6 6 6 6 5 4 5 6 7 8 9 8 8 8 8 9 11 13 14 13 12 14 15 14 15
6 6 4 3 3 3 3 2 1 2 1 1 1 1 3 4 4 4 5 5 4 5 5 6 6 6 7 7 7 7 6 6 6 6 6 6 6 8 8 7 6 7 9 11 12 10 13 14 14 15 16 16
6 5 4 4 4 3 2 1 1 1 2 1 1 3 4 5 5 5 5 4 5 5 6 6 6 6 7 7 7 7 7 7 7 7 6 5 6 6 7 8 6 7 8 8 10 15 15 12 9 11 13 14
5 4 4 3 3 2 1 1 0 1 1 2 3 4 5 5 5 5 4 5 5 5 6 6 6 7 7 7 7 6 6 6 6 5 6 6 6 7 6 7 6 6 4 9 10 11 13 14 16 10 6 6
5 5 5 4 2 2 1 1 0 2 4 4 5 6 5 5 4 5 5 5 6 6 6 6 7 7 7 7 7 7 6 6 6 5 5 5 6 6 8 6 7 5 6 6 8 10 8 13 11 16 7 10
7 6 5 4 3 1 2 2 3 4 5 5 5 5 5 4 4 6 6 5 6 6 7 7 7 7 7 8 7 6 6 6 6 6 6 6 6 6 7 9 8 7 7 7 6 7 10 9 8 10 14 17
7 6 5 5 4 4 4 5 5 5 5 4 4 3 3 5 5 6 6 6 6 6 6 7 7 7 8 8 7 6 5 6 6 6 6 6 6 7 8 8 9 9 7 7 7 8 9 9 11 15 16 12
7 7 6 6 5 4 4 4 4 3 2 3 3 3 5 5 5 5 6 6 6 6 6 7 7 8 8 8 7 6 6 6 6 6 6 5 6 7 6 7 9 10 8 7 8 8 10 12 13 14 13 13
Wind_Direction
59 60 62 63 65 65 64 64 62 58 57 54 52 49 46 44 41 40 38 37 35 33 30 26 25 22 21 19 17 15 12 10 9 7 7 7 5 6 1 358 354 351 347 346 346 346 344 343 340 331 322 285
50 54 57 59 62 64 64 63 60 59 55 53 51 48 45 43 41 39 37 36 35 32 28 23 21 19 18 17 15 13 11 8 6 3 2 359 358 358 357 353 349 344 342 341 342 341 339 335 327 317 297 278
60 44 49 53 57 60 61 61 60 57 53 50 47 44 41 35 40 38 36 31 34 30 28 20 16 13 12 12 9 8 5 3 2 0 358 354 352 351 348 345 340 335 332 337 335 336 335 328 321 304 275 269
74 53 38 44 49 53 57 56 57 55 50 48 39 38 26 28 29 34 40 25 28 22 23 20 10 8 9 9 4 1 359 357 355 355 353 351 347 346 342 337 328 318 321 327 329 327 325 323 308 290 295 301
77 56 40 69 50 54 51 53 53 51 50 45 47 29 27 21 29 22 18 20 11 10 14 17 2 1 2 4 2 356 353 352 350 349 347 345 344 341 337 332 317 302 312 316 316 317 309 299 291 301 307 304
104 113 84 67 74 59 66 55 62 58 53 48 40 31 33 33 29 18 19 15 8 357 359 6 354 352 352 352 354 349 343 343 347 345 340 340 339 335 331 320 314 326 322 307 305 298 279 272 295 294 299 301
124 123 108 105 97 97 79 76 68 71 63 55 44 39 38 36 32 14 20 19 352 324 326 337 336 341 340 343 345 347 337 339 338 338 332 333 333 324 318 315 324 325 321 319 312 291 287 310 298 302 291 284
135 126 130 119 121 109 101 90 86 76 71 61 52 45 48 41 29 9 13 4 352 305 344 346 336 334 329 338 341 344 334 335 344 332 330 330 327 313 332 330 325 326 322 319 322 318 311 308 311 301 295 286
132 124 141 127 130 108 94 88 81 79 76 65 54 51 48 43 35 21 20 12 358 354 349 345 344 343 347 345 340 342 340 342 341 337 341 338 337 337 329 328 324 322 318 318 316 314 311 307 304 300 295 290
113 187 136 126 109 122 87 83 73 72 69 67 55 50 38 37 38 24 22 15 5 360 356 354 353 350 348 346 343 345 342 345 339 336 339 338 338 333 330 320 317 314 311 310 309 309 310 306 303 298 296 293
152 131 122 104 46 27 81 73 71 67 69 65 57 47 42 29 30 24 20 12 8 4 359 359 355 350 350 348 348 347 341 342 338 336 333 333 327 326 316 313 306 303 299 298 298 299 300 300 300 297 294 292
154 137 119 121 141 100 45 52 66 70 62 67 64 48 36 26 29 24 21 14 9 2 3 357 349 345 345 346 345 343 341 339 337 335 332 327 320 314 311 305 301 297 296 294 292 290 293 296 294 293 294 291
150 145 146 144 139 110 94 85 80 72 76 65 60 52 39 27 23 22 20 15 5 359 1 352 347 342 345 337 340 339 336 337 330 327 327 323 322 317 311 306 300 300 293 291 292 291 290 289 290 289 286 285
157 155 147 148 135 127 148 103 94 94 73 66 56 55 40 33 24 22 13 12 359 358 356 350 348 343 344 339 341 338 334 332 323 321 319 321 317 314 308 303 300 296 292 291 289 287 287 285 286 285 284 282
149 147 148 146 151 143 126 120 110 91 83 71 64 55 40 37 27 15 21 6 2 352 351 351 348 343 340 338 342 337 330 329 320 315 316 319 319 319 315 307 304 296 295 291 288 285 284 284 284 283 281 278
145 142 138 147 147 132 116 106 94 90 85 80 75 60 47 33 22 11 3 16 5 352 345 347 345 338 338 334 335 329 327 322 315 311 309 310 309 306 306 308 306 305 298 292 289 290 286 284 282 281 280 279
138 135 138 136 133 122 123 103 94 91 89 84 84 79 54 36 17 359 8 4 0 344 338 339 332 336 331 329 331 323 319 315 310 310 314 314 311 304 307 300 300 300 294 294 294 290 287 289 286 282 281 278
137 134 129 130 133 126 143 105 106 105 97 89 90 86 71 26 19 0 3 353 340 332 332 329 323 328 325 328 324 314 318 320 319 316 317 317 317 318 307 307 306 303 296 294 293 292 292 287 285 284 282 281
121 125 137 145 143 133 127 115 117 112 106 106 94 51 82 25 6 350 348 339 328 322 319 317 311 313 316 325 315 308 315 312 310 312 315 317 317 312 306 305 304 300 298 297 292 288 286 286 287 283 280 278
131 139 144 141 136 134 128 124 121 118 115 126 125 116 344 55 330 336 328 322 319 306 305 302 300 299 312 312 302 301 300 298 298 308 305 304 302 306 304 301 297 296 295 294 292 290 285 280 278 281 280 276
144 147 146 150 140 129 139 130 125 122 144 168 178 137 310 347 305 308 309 301 295 288 281 284 286 290 291 297 291 286 288 283 287 292 290 291 292 287 293 294 290 290 291 291 288 286 281 278 275 270 272 272
159 153 152 155 141 127 123 123 130 139 176 202 200 267 276 306 288 282 293 282 276 275 275 272 274 277 278 279 276 272 274 276 276 277 287 293 291 292 292 292 296 297 295 291 287 282 277 274 269 266 264 262
154 153 158 143 142 135 138 151 144 168 187 197 226 251 304 280 271 265 275 272 266 267 272 272 269 269 270 272 268 268 271 272 268 270 280 284 289 287 286 292 294 296 298 293 286 281 279 277 271 268 264 263
174 175 173 164 154 160 160 158 162 165 192 190 237 250 271 271 264 270 275 273 268 268 269 274 271 268 266 258 259 259 262 267 275 283 285 281 285 288 286 280 285 295 300 296 290 283 278 275 275 267 260 258
179 180 172 172 188 175 152 157 137 172 164 192 238 251 266 261 257 264 272 271 271 273 272 267 268 263 259 252 254 254 257 262 270 272 272 280 279 281 285 287 287 295 301 299 296 295 291 287 271 264 260 254
177 179 183 168 163 155 147 150 175 170 160 204 238 252 253 256 259 263 271 275 277 272 268 269 266 264 261 258 259 260 263 262 262 263 262 273 283 270 279 285 290 297 306 305 318 319 314 294 280 271 265 252
172 164 146 164 135 142 111 132 0 312 277 259 253 252 251 255 258 267 269 273 273 272 263 262 265 265 264 259 260 263 261 258 258 260 267 271 277 296 282 280 277 283 308 307 311 298 295 312 325 309 251 250
157 145 128 125 105 98 258 297 221 265 260 248 241 245 240 246 257 267 271 268 266 261 263 266 269 269 263 262 259 261 265 265 265 261 265 269 275 283 292 290 291 283 290 288 316 314 318 304 302 302 308 326
154 138 145 141 129 163 215 238 242 239 233 218 218 227 224 233 252 265 267 267 264 265 268 265 262 264 266 265 261 261 263 265 264 267 266 268 270 271 283 294 291 287 274 268 264 287 311 311 293 290 310 329
161 168 177 173 185 198 208 216 205 218 224 213 226 239 249 249 246 255 261 262 265 265 266 268 267 267 266 264 262 258 265 268 268 258 256 257 265 269 266 274 287 284 274 258 256 253 256 260 283 305 309 316
163 169 183 192 202 219 228 234 233 236 254 252 261 269 268 267 258 256 267 273 271 270 272 274 274 270 267 266 266 264 264 267 269 271 262 263 258 263 269 266 271 275 285 278 254 248 250 257 265 274 290 293